Weather in Bakhmach

Ukraine / Chernihiv Region     51˚11′00″N   32˚49′48″E
temp.,
°C
wind,
m/s
gust,
m/s
humid.,
%
clouds,
%
prec.,
mm/h
press.,
hPa
HPBL,
m
1 december, tue
tue123:00−1˚n3597100 1.8 1027332
02:00−1˚n4696100 3.4 1027356
05:00−1˚n4897100 1.4 1027405
08:00−1˚nne4897100 2.4 1028391
11:00ne4797100 0.4 1028322
14:00+1˚ene35100100 0.6 1028235
17:00−1˚ene3796100 0.0 1028214
20:00e4794100 0.0 1029421
2 december, wed
wed223:00e4892100 0.0 1029447
02:00−2˚e4891100 0.0 1030336
05:00−2˚e4894100 0.2 1029399
08:00−2˚e4896100 0.4 1029419
11:00−2˚ese5793100 0.3 1029519
14:00−1˚ese4689100 0.4 1029556
17:00−2˚ese4796100 0.1 1028359
20:00−2˚ese4896100 0.4 1029409
3 december, thu
thu323:00−3˚ese479683 0.3 1028343
02:00−3˚ese479692 0.7 1028344
05:00−3˚ese479795 0.9 1027316
08:00−4˚ese369790 0.9 1027183
11:00−1˚ese369582 0.0 1026324
14:00ese359684 0.2 1026324
17:00ese4697100 0.0 1025253
20:00ese359694 0.0 1026125
4 december, fri
fri423:00+1˚se36100100 0.0 1025212
02:00+1˚se47100100 0.0 1025258
05:00+1˚se5999100 0.1 1025282
08:00+1˚se51099100 0.1 1025326
11:00+1˚se5999100 0.1 1025339
14:00+1˚se6996100 0.1 1025507
17:00+1˚se51094100 0.0 1025480
20:00+1˚se61195100 0.0 1025409
5 december, sat
sat523:00+1˚se61295100 0.0 1025470
02:00+1˚se61295100 0.0 1025516
05:00+1˚se6119498 0.0 1025491
08:00+1˚se6129299 0.0 1026486
11:00+1˚se71191100 0.0 1026548
14:00se61090100 0.0 1026468
17:00ese6129193 0.0 1027422
20:00−1˚se7139162 0.0 1028429